When you browse on this site, cookies collect data to enhance your experience and personalize the content and advertising you see.
Visit our Privacy Policy to learn more. By continuing to use the site, you agree to this use of cookies and data.
  • In Schweiz
  • Länderverzeichnis
  • Für 7 Tage
  • Wassertemperatur
  • Wetterkarte
  • Widgets
  • user-avatar
    Anmelden

    Stündliche Wetter Lloret de Mar

    Heute, 17 September, Dienstag

    Zeit Temperatur Niederschläge Wind Luftdruck Luftfeuchtigkeit
    00:00 +21°C° 0 mm 0 m/S 761 mmHg 72%
    01:00 +20°C° 0 mm 0 m/S 761 mmHg 72%
    02:00 +20°C° 0 mm 0 m/S 760 mmHg 72%
    03:00 +20°C° 0 mm 0 m/S 760 mmHg 72%
    04:00 +20°C° 0 mm 0 m/S 760 mmHg 72%
    05:00 +20°C° 0 mm 0 m/S 760 mmHg 71%
    06:00 +20°C° 0 mm 0 m/S 760 mmHg 71%
    07:00 +23°C° 0 mm 0 m/S 760 mmHg 63%
    08:00 +26°C° 0 mm 0 m/S 760 mmHg 54%
    09:00 +28°C° 0 mm 0 m/S 760 mmHg 46%
    10:00 +31°C° 0 mm 1 m/S 760 mmHg 44%
    11:00 +31°C° 0 mm 1 m/S 760 mmHg 42%
    12:00 +32°C° 0 mm 2 m/S 760 mmHg 40%
    13:00 +31°C° 0 mm 2 m/S 759 mmHg 42%
    14:00 +31°C° 0 mm 2 m/S 759 mmHg 45%
    15:00 +30°C° 0 mm 2 m/S 758 mmHg 47%
    16:00 +28°C° 0 mm 2 m/S 758 mmHg 55%
    17:00 +26°C° 0 mm 1 m/S 758 mmHg 62%
    18:00 +24°C° 0 mm 1 m/S 758 mmHg 70%
    19:00 +24°C° 0 mm 1 m/S 758 mmHg 70%
    20:00 +24°C° 0 mm 2 m/S 758 mmHg 70%
    21:00 +23°C° 0 mm 2 m/S 759 mmHg 71%
    22:00 +23°C° 0 mm 2 m/S 759 mmHg 70%
    23:00 +23°C° 0 mm 2 m/S 758 mmHg 69%

    Morgen, 18 September, Mittwoch

    Zeit Temperatur Niederschläge Wind Luftdruck Luftfeuchtigkeit
    00:00 +24°C° 0 mm 2 m/S 758 mmHg 68%
    01:00 +24°C° 0 mm 2 m/S 758 mmHg 67%
    02:00 +24°C° 0 mm 2 m/S 758 mmHg 66%
    03:00 +24°C° 0 mm 1 m/S 757 mmHg 66%
    04:00 +23°C° 0 mm 1 m/S 758 mmHg 66%
    05:00 +23°C° 0 mm 1 m/S 758 mmHg 67%
    06:00 +23°C° 0 mm 1 m/S 758 mmHg 67%
    07:00 +25°C° 0 mm 2 m/S 758 mmHg 61%
    08:00 +27°C° 0 mm 3 m/S 759 mmHg 55%
    09:00 +28°C° 0 mm 4 m/S 759 mmHg 50%
    10:00 +30°C° 0 mm 4 m/S 759 mmHg 46%
    11:00 +32°C° 0 mm 4 m/S 759 mmHg 43%
    12:00 +33°C° 0 mm 4 m/S 759 mmHg 40%
    13:00 +31°C° 0 mm 3 m/S 759 mmHg 44%
    14:00 +30°C° 0 mm 3 m/S 759 mmHg 49%
    15:00 +29°C° 0 mm 2 m/S 758 mmHg 53%
    16:00 +27°C° 0.3 mm 2 m/S 758 mmHg 62%
    17:00 +25°C° 0.3 mm 2 m/S 759 mmHg 71%
    18:00 +23°C° 0.3 mm 1 m/S 759 mmHg 80%
    19:00 +23°C° 0.1 mm 1 m/S 759 mmHg 79%
    20:00 +23°C° 0.1 mm 1 m/S 760 mmHg 78%
    21:00 +22°C° 0.1 mm 1 m/S 760 mmHg 78%
    22:00 +22°C° 0.1 mm 1 m/S 760 mmHg 77%
    23:00 +22°C° 0.1 mm 1 m/S 760 mmHg 77%

    übermorgen, 19 September, Donnerstag

    Zeit Temperatur Niederschläge Wind Luftdruck Luftfeuchtigkeit
    00:00 +22°C° 0.1 mm 1 m/S 760 mmHg 77%
    01:00 +21°C° 0.1 mm 2 m/S 760 mmHg 77%
    02:00 +21°C° 0.1 mm 2 m/S 760 mmHg 76%
    03:00 +21°C° 0.1 mm 2 m/S 760 mmHg 76%
    04:00 +20°C° 0 mm 2 m/S 760 mmHg 77%
    05:00 +20°C° 0 mm 2 m/S 760 mmHg 79%
    06:00 +20°C° 0 mm 2 m/S 760 mmHg 80%
    07:00 +23°C° 0 mm 2 m/S 760 mmHg 74%
    08:00 +25°C° 0 mm 3 m/S 761 mmHg 68%
    09:00 +26°C° 0 mm 3 m/S 761 mmHg 62%
    10:00 +27°C° 0 mm 3 m/S 761 mmHg 59%
    11:00 +27°C° 0 mm 4 m/S 761 mmHg 57%
    12:00 +28°C° 0 mm 4 m/S 761 mmHg 54%
    13:00 +27°C° 0.3 mm 4 m/S 761 mmHg 59%
    14:00 +26°C° 0.3 mm 3 m/S 761 mmHg 65%
    15:00 +25°C° 0.3 mm 3 m/S 761 mmHg 70%
    16:00 +24°C° 0.3 mm 2 m/S 761 mmHg 75%
    17:00 +23°C° 0.3 mm 2 m/S 761 mmHg 80%
    18:00 +22°C° 0.3 mm 1 m/S 761 mmHg 86%
    19:00 +22°C° 0.3 mm 1 m/S 761 mmHg 87%
    20:00 +22°C° 0.3 mm 1 m/S 762 mmHg 87%
    21:00 +22°C° 0.3 mm 1 m/S 762 mmHg 88%
    22:00 +21°C° 0 mm 1 m/S 762 mmHg 89%
    23:00 +20°C° 0 mm 2 m/S 762 mmHg 89%

    20 September, Freitag

    Zeit Temperatur Niederschläge Wind Luftdruck Luftfeuchtigkeit
    00:00 +20°C° 0 mm 2 m/S 762 mmHg 90%
    01:00 +20°C° 0 mm 3 m/S 762 mmHg 89%
    02:00 +20°C° 0 mm 3 m/S 762 mmHg 87%
    03:00 +19°C° 0 mm 3 m/S 762 mmHg 86%
    04:00 +19°C° 0 mm 3 m/S 762 mmHg 85%
    05:00 +19°C° 0 mm 3 m/S 762 mmHg 84%
    06:00 +19°C° 0 mm 3 m/S 762 mmHg 82%
    07:00 +20°C° 0 mm 3 m/S 762 mmHg 79%
    08:00 +22°C° 0 mm 3 m/S 762 mmHg 75%
    09:00 +24°C° 0 mm 3 m/S 763 mmHg 72%
    10:00 +25°C° 0 mm 3 m/S 763 mmHg 70%
    11:00 +26°C° 0 mm 4 m/S 762 mmHg 67%
    12:00 +27°C° 0 mm 4 m/S 762 mmHg 65%
    13:00 +27°C° 0 mm 4 m/S 762 mmHg 65%
    14:00 +26°C° 0 mm 4 m/S 761 mmHg 66%
    15:00 +26°C° 0 mm 4 m/S 761 mmHg 66%
    16:00 +25°C° 0 mm 3 m/S 761 mmHg 74%
    17:00 +24°C° 0 mm 3 m/S 761 mmHg 82%
    18:00 +21°C° 0 mm 3 m/S 761 mmHg 90%
    19:00 +21°C° 0 mm 3 m/S 762 mmHg 90%
    20:00 +21°C° 0 mm 3 m/S 762 mmHg 91%
    21:00 +21°C° 0 mm 2 m/S 762 mmHg 92%
    22:00 +21°C° 0 mm 3 m/S 762 mmHg 93%
    23:00 +20°C° 0 mm 3 m/S 762 mmHg 94%

    21 September, Samstag

    Zeit Temperatur Niederschläge Wind Luftdruck Luftfeuchtigkeit
    00:00 +20°C° 0 mm 3 m/S 761 mmHg 95%
    01:00 +20°C° 0 mm 3 m/S 761 mmHg 95%
    02:00 +20°C° 0 mm 2 m/S 761 mmHg 95%
    03:00 +20°C° 0 mm 2 m/S 762 mmHg 95%
    04:00 +20°C° 0 mm 2 m/S 761 mmHg 94%
    05:00 +20°C° 0 mm 3 m/S 761 mmHg 93%
    06:00 +20°C° 0 mm 3 m/S 761 mmHg 91%
    07:00 +21°C° 0.1 mm 3 m/S 761 mmHg 90%
    08:00 +21°C° 0.1 mm 2 m/S 762 mmHg 88%
    09:00 +23°C° 0.1 mm 2 m/S 762 mmHg 86%
    10:00 +23°C° 0.3 mm 2 m/S 762 mmHg 86%
    11:00 +23°C° 0.3 mm 2 m/S 762 mmHg 86%
    12:00 +24°C° 0.3 mm 3 m/S 762 mmHg 86%
    13:00 +23°C° 1.2 mm 4 m/S 761 mmHg 88%
    14:00 +23°C° 1.2 mm 5 m/S 761 mmHg 90%
    15:00 +23°C° 1.2 mm 5 m/S 760 mmHg 92%
    16:00 +22°C° 0.3 mm 5 m/S 760 mmHg 93%
    17:00 +22°C° 0.3 mm 5 m/S 760 mmHg 94%
    18:00 +22°C° 0.3 mm 4 m/S 760 mmHg 95%
    19:00 +22°C° 1.4 mm 4 m/S 760 mmHg 96%
    20:00 +22°C° 1.4 mm 4 m/S 760 mmHg 96%
    21:00 +22°C° 1.4 mm 4 m/S 761 mmHg 97%
    22:00 +22°C° 0.6 mm 4 m/S 760 mmHg 97%
    23:00 +22°C° 0.6 mm 3 m/S 760 mmHg 97%

    22 September, Sonntag

    Zeit Temperatur Niederschläge Wind Luftdruck Luftfeuchtigkeit
    00:00 +22°C° 0.6 mm 3 m/S 760 mmHg 97%
    01:00 +22°C° 0.2 mm 3 m/S 760 mmHg 96%
    02:00 +23°C° 0.2 mm 2 m/S 760 mmHg 96%
    03:00 +23°C° 0.2 mm 2 m/S 759 mmHg 95%
    04:00 +23°C° 0.1 mm 2 m/S 759 mmHg 94%
    05:00 +23°C° 0.1 mm 2 m/S 759 mmHg 93%
    06:00 +21°C° 0.1 mm 2 m/S 759 mmHg 93%
    07:00 +23°C° 1.2 mm 2 m/S 760 mmHg 91%
    08:00 +23°C° 1.2 mm 2 m/S 760 mmHg 90%
    09:00 +24°C° 1.2 mm 3 m/S 760 mmHg 89%
    10:00 +24°C° 0.8 mm 3 m/S 760 mmHg 88%
    11:00 +24°C° 0.8 mm 3 m/S 760 mmHg 87%
    12:00 +24°C° 0.8 mm 3 m/S 760 mmHg 86%
    13:00 +24°C° 0.1 mm 2 m/S 760 mmHg 85%
    14:00 +24°C° 0.1 mm 2 m/S 760 mmHg 84%
    15:00 +24°C° 0.1 mm 2 m/S 760 mmHg 84%
    16:00 +24°C° 0 mm 2 m/S 760 mmHg 86%
    17:00 +23°C° 0 mm 1 m/S 760 mmHg 88%
    18:00 +22°C° 0 mm 1 m/S 761 mmHg 90%
    19:00 +22°C° 0 mm 1 m/S 761 mmHg 89%
    20:00 +22°C° 0 mm 1 m/S 762 mmHg 89%
    21:00 +21°C° 0 mm 1 m/S 762 mmHg 89%
    22:00 +21°C° 0.1 mm 1 m/S 762 mmHg 89%
    23:00 +20°C° 0.1 mm 2 m/S 762 mmHg 89%
    Mehr zeigen